Weather History for KONP - March, 2013

Change the Weather History Date:

Sunday, March 17, 2013

  Actual Average (KEUG) Record (KEUG)
Temperature  
Mean Temperature 42 °F 47 °F  
Max Temperature 46 °F 57 °F 77 °F (1978)
Min Temperature 37 °F 37 °F 21 °F (1906)
Degree Days  
Heating Degree Days 24 18  
Month to date heating degree days 325  
Since 1 July heating degree days 3652  
Cooling Degree Days 0 0  
Month to date cooling degree days 0  
Year to date cooling degree days 0  
Moisture  
Dew Point 35 °F    
Average Humidity 76    
Maximum Humidity 100    
Minimum Humidity 62    
Precipitation  
Precipitation 0.02 in 0.16 in 1.46 in (1945)
Month to date precipitation 2.87  
Year to date precipitation 15.17  
Sea Level Pressure  
Sea Level Pressure 30.32 in    
Wind  
Wind Speed 9 mph (West)    
Max Wind Speed 15 mph    
Max Gust Speed 22 mph    
Visibility 10 miles    
Events Rain    
T = Trace of Precipitation, MM = Missing Value Source: NWS Daily Summary

Daily Weather History Graph

Daily Weather History Graph

Search for Another Location

Airport or City:

Trip Planner

Search our weather history database for the weather conditions in past years. The results will help you decide how hot, cold, wet, or windy it might be!

Date:

Astronomy

Mar. 17, 2013 Rise Set
Actual Time 7:24 AM PDT 7:25 PM PDT
Civil Twilight 6:55 AM PDT 7:54 PM PDT
Nautical Twilight 6:21 AM PDT 8:28 PM PDT
Astronomical Twilight 5:46 AM PDT 9:03 PM PDT
Moon 10:28 AM PDT (3/17) 12:51 AM PDT (3/17)
Length of Visible Light 12h 59m
Length of Day
12h 01m
Waxing Crescent, 32% of the Moon is Illuminated
Mar 17
Waxing Crescent
Mar 19
First Quarter
Mar 27
Full
Apr 2
Last Quarter
Apr 10
New

Hourly Weather History & Observations

Time (PDT) Temp. Windchill Dew Point Humidity Pressure Visibility Wind Dir Wind Speed Gust Speed Precip Events Conditions
12:15 AM 42.8 °F 36.6 °F 33.8 °F 70% 30.24 in 10.0 mi NW 11.5 mph - N/A   Scattered Clouds
12:35 AM 42.8 °F 35.8 °F 33.8 °F 70% 30.25 in 10.0 mi NW 13.8 mph 17.3 mph N/A   Scattered Clouds
12:55 AM 42.8 °F 37.0 °F 33.8 °F 70% 30.25 in 10.0 mi WNW 10.4 mph - N/A   Scattered Clouds
1:15 AM 42.8 °F 36.6 °F 33.8 °F 70% 30.25 in 10.0 mi WNW 11.5 mph - N/A   Scattered Clouds
1:35 AM 42.8 °F 35.8 °F 33.8 °F 70% 30.25 in 10.0 mi WNW 13.8 mph 19.6 mph N/A   Scattered Clouds
1:55 AM 42.8 °F 37.0 °F 33.8 °F 70% - 10.0 mi WNW 10.4 mph 17.3 mph N/A   Scattered Clouds
2:15 AM 42.8 °F 36.2 °F 33.8 °F 70% 30.27 in 10.0 mi NW 12.7 mph 16.1 mph N/A   Mostly Cloudy
2:35 AM 42.8 °F 36.2 °F 32.0 °F 66% 30.28 in 10.0 mi WNW 12.7 mph - N/A   Mostly Cloudy
2:55 AM 42.8 °F 37.0 °F 33.8 °F 70% 30.29 in 10.0 mi WNW 10.4 mph - N/A   Scattered Clouds
3:15 AM 42.8 °F 36.6 °F 33.8 °F 70% 30.29 in 10.0 mi WNW 11.5 mph 16.1 mph N/A   Scattered Clouds
3:35 AM 42.8 °F 36.6 °F 33.8 °F 70% 30.29 in 10.0 mi NW 11.5 mph - N/A   Mostly Cloudy
3:55 AM 42.8 °F 37.0 °F 33.8 °F 70% 30.29 in 10.0 mi WNW 10.4 mph - N/A   Scattered Clouds
4:15 AM 42.8 °F 36.6 °F 33.8 °F 70% 30.29 in 10.0 mi WNW 11.5 mph 17.3 mph N/A   Scattered Clouds
4:35 AM 42.8 °F 36.6 °F 32.0 °F 66% 30.29 in 10.0 mi WNW 11.5 mph 17.3 mph N/A   Clear
4:55 AM 42.8 °F 36.2 °F 32.0 °F 66% 30.29 in 10.0 mi NW 12.7 mph 17.3 mph N/A   Clear
5:15 AM 42.8 °F 35.4 °F 33.8 °F 70% 30.31 in 10.0 mi NW 15.0 mph 21.9 mph N/A   Scattered Clouds
5:35 AM 42.8 °F 37.0 °F 32.0 °F 66% 30.32 in 10.0 mi WNW 10.4 mph - N/A   Overcast
5:55 AM 41.0 °F 36.4 °F 33.8 °F 76% 30.32 in 10.0 mi WNW 6.9 mph - N/A   Mostly Cloudy
6:15 AM 41.0 °F 36.4 °F 33.8 °F 76% 30.33 in 10.0 mi WNW 6.9 mph - N/A   Scattered Clouds
6:35 AM 41.0 °F 36.4 °F 33.8 °F 76% 30.33 in 10.0 mi West 6.9 mph - N/A   Mostly Cloudy
6:55 AM 41.0 °F 34.7 °F 35.6 °F 81% 30.34 in 10.0 mi NNW 10.4 mph - N/A   Overcast
7:15 AM 39.2 °F 37.0 °F 33.8 °F 81% 30.34 in 10.0 mi WNW 3.5 mph - N/A   Overcast
7:35 AM 39.2 °F 37.0 °F 33.8 °F 81% 30.34 in 10.0 mi NW 3.5 mph - N/A   Overcast
7:55 AM 42.8 °F 37.5 °F 33.8 °F 70% 30.34 in 10.0 mi WNW 9.2 mph - N/A   Overcast
8:15 AM 42.8 °F 37.5 °F 33.8 °F 70% 30.34 in 10.0 mi West 9.2 mph - N/A   Mostly Cloudy
8:35 AM 42.8 °F 37.5 °F 33.8 °F 70% 30.35 in 10.0 mi WNW 9.2 mph - N/A   Clear
8:55 AM 42.8 °F 37.5 °F 33.8 °F 70% 30.35 in 10.0 mi WNW 9.2 mph - N/A   Scattered Clouds
9:15 AM 44.6 °F 40.7 °F 35.6 °F 71% 30.36 in 10.0 mi West 6.9 mph - N/A   Mostly Cloudy
9:35 AM 41.0 °F 35.8 °F 35.6 °F 81% 30.36 in 7.0 mi SSW 8.1 mph - N/A   Overcast
9:55 AM 41.0 °F 38.0 °F 37.4 °F 87% 30.36 in 10.0 mi South 4.6 mph - N/A   Mostly Cloudy
10:15 AM 44.6 °F 42.2 °F 37.4 °F 76% 30.36 in 10.0 mi SW 4.6 mph - N/A   Scattered Clouds
10:35 AM 42.8 °F 40.1 °F 35.6 °F 76% 30.36 in 10.0 mi West 4.6 mph - N/A   Mostly Cloudy
10:55 AM 42.8 °F 40.1 °F 35.6 °F 76% 30.36 in 10.0 mi West 4.6 mph - N/A   Overcast
11:15 AM 42.8 °F 37.5 °F 35.6 °F 76% 30.36 in 5.0 mi SW 9.2 mph - N/A   Haze
11:35 AM 42.8 °F 39.3 °F 35.6 °F 76% 30.36 in 10.0 mi South 5.8 mph - N/A   Overcast
11:55 AM 44.6 °F 41.4 °F 35.6 °F 71% 30.36 in 10.0 mi WSW 5.8 mph - N/A   Mostly Cloudy
12:15 PM 44.6 °F 43.1 °F 35.6 °F 71% 30.35 in 10.0 mi SSW 3.5 mph - N/A   Scattered Clouds
12:35 PM 44.6 °F 41.4 °F 35.6 °F 71% 30.35 in 10.0 mi WSW 5.8 mph - N/A   Clear
12:55 PM 46.4 °F 44.3 °F 35.6 °F 66% 30.35 in 10.0 mi West 4.6 mph - N/A   Clear
1:15 PM 46.4 °F 44.3 °F 35.6 °F 66% 30.35 in 10.0 mi West 4.6 mph - N/A   Clear
1:35 PM 46.4 °F 43.5 °F 33.8 °F 62% 30.35 in 10.0 mi WSW 5.8 mph - N/A   Clear
1:55 PM 46.4 °F 42.9 °F 35.6 °F 66% 30.34 in 10.0 mi West 6.9 mph - N/A   Clear
2:15 PM 46.4 °F 42.9 °F 35.6 °F 66% 30.34 in 10.0 mi West 6.9 mph - N/A   Clear
2:35 PM 46.4 °F 42.4 °F 35.6 °F 66% 30.34 in 10.0 mi WNW 8.1 mph - N/A   Clear
2:55 PM 46.4 °F 42.9 °F 35.6 °F 66% 30.33 in 10.0 mi West 6.9 mph - N/A   Clear
3:15 PM 46.4 °F 41.9 °F 35.6 °F 66% 30.33 in 10.0 mi WSW 9.2 mph - N/A   Clear
3:35 PM 46.4 °F 43.5 °F 33.8 °F 62% 30.33 in 10.0 mi West 5.8 mph - N/A   Clear
3:55 PM 46.4 °F 42.9 °F 33.8 °F 62% 30.33 in 10.0 mi WSW 6.9 mph - N/A   Scattered Clouds
4:15 PM 44.6 °F 41.4 °F 33.8 °F 66% 30.33 in 10.0 mi WSW 5.8 mph - N/A   Mostly Cloudy
4:35 PM 42.8 °F 37.5 °F 37.4 °F 81% 30.34 in 5.0 mi NW 9.2 mph - N/A Rain Light Rain
4:55 PM 42.8 °F - 37.4 °F 81% 30.34 in 7.0 mi Calm Calm - 0.01 in Rain Light Rain
5:15 PM 42.8 °F - 37.4 °F 81% 30.34 in 7.0 mi Calm Calm - N/A Rain Light Rain
5:35 PM 42.8 °F - 37.4 °F 81% - 10.0 mi Calm Calm - N/A   Overcast
5:55 PM 42.8 °F 41.1 °F 39.2 °F 87% 30.34 in 10.0 mi South 3.5 mph - N/A   Overcast
6:15 PM 42.8 °F 40.1 °F 39.2 °F 87% 30.34 in 10.0 mi South 4.6 mph - N/A   Overcast
6:35 PM 42.8 °F 40.1 °F 39.2 °F 87% 30.33 in 10.0 mi South 4.6 mph - N/A   Overcast
7:15 PM 42.8 °F 40.1 °F 37.4 °F 81% 30.32 in 10.0 mi WNW 4.6 mph - N/A   Overcast
7:55 PM 42.8 °F - 37.4 °F 81% 30.32 in 10.0 mi Calm Calm - N/A   Overcast
8:15 PM 41.0 °F 39.0 °F 37.4 °F 87% 30.32 in 10.0 mi SE 3.5 mph - N/A   Overcast
8:35 PM 41.0 °F 39.0 °F 37.4 °F 87% 30.31 in 10.0 mi SSE 3.5 mph - N/A   Overcast
8:55 PM 39.2 °F - 37.4 °F 93% 30.32 in 10.0 mi Calm Calm - N/A   Scattered Clouds
9:15 PM 37.4 °F - 37.4 °F 100% 30.32 in 10.0 mi Calm Calm - N/A   Mostly Cloudy
9:35 PM 39.2 °F 35.9 °F 37.4 °F 93% 30.33 in 7.0 mi NNW 4.6 mph - 0.01 in Rain Rain
9:55 PM 39.2 °F 37.0 °F 37.4 °F 93% 30.32 in 10.0 mi East 3.5 mph - 0.01 in   Overcast
10:15 PM 39.2 °F 35.9 °F 37.4 °F 93% 30.33 in 10.0 mi East 4.6 mph - N/A   Light Drizzle
10:55 PM 39.2 °F 35.0 °F 37.4 °F 93% 30.33 in 10.0 mi East 5.8 mph - N/A   Overcast
11:15 PM 39.2 °F 35.9 °F 37.4 °F 93% 30.33 in 10.0 mi East 4.6 mph - N/A   Overcast
11:35 PM 37.4 °F 33.8 °F 37.4 °F 100% 30.33 in 10.0 mi East 4.6 mph - N/A   Overcast
11:55 PM 37.4 °F - 37.4 °F 100% 30.32 in 10.0 mi Calm Calm - N/A   Overcast